[[{"header":{"parameterUnit":"m.s-1","parameterCategory":1,"la1":30.2991,"la2":30.254,"lo1":-89.0895,"lo2":-89.0444,"dy":0.0017,"dx":0.0017,"nx":28,"ny":28,"refTime":"2025-01-29T09:00:00:Z","depth":0,"parameterNumber":2,"parameterNumberName":"U-component_of_WINDS"},"data":[0,0,0,0,0,0,0,0,0,0,0,0,0,0,0,0,0,0,0,0,0,0,0,0,0,0,0,0,0,0,0,0,0,0,0,0,0,0,0,0,0,0,0,0,0,0,0,0,0,0,0,0,0,0,0,0,0,0,-3.4144,-3.4144,0,-3.4222,-3.4222,-3.4223,-3.4239,-3.4238,-3.4238,-3.4237,-3.4317,-3.432,-3.4323,0,0,0,0,0,0,0,0,0,0,0,0,0,-3.4009,-3.4011,-3.4144,-3.4145,-3.4146,-3.4221,-3.4222,-3.4224,-3.4239,-3.4238,-3.4237,-3.4237,-3.4316,-3.432,-3.4323,0,0,0,0,0,0,0,0,0,0,0,0,0,-3.4075,-3.4012,-3.4143,-3.4162,-3.4165,-3.4221,-3.4223,-3.4224,-3.4239,-3.4238,-3.4237,-3.4236,-3.4315,-3.4319,-3.4323,-3.4366,0,0,-3.4336,-3.4337,0,0,0,0,0,0,0,0,-3.4071,-3.408,-3.4159,-3.4161,-3.4164,-3.4219,-3.4204,-3.4272,-3.4239,-3.4211,-3.4237,-3.4236,-3.4285,-3.4292,-3.4309,-3.437,-3.4374,-3.4336,-3.4338,-3.434,-3.4341,0,0,0,0,0,0,0,-3.4067,-3.4077,-3.4174,-3.416,-3.4163,-3.4167,-3.4176,-3.4217,-3.4252,-3.4213,-3.4215,-3.4224,-3.4287,-3.4305,-3.4311,-3.4375,-3.4336,-3.4339,-3.4342,-3.4344,-3.4476,-3.4477,0,0,0,0,0,0,-3.4059,-3.4073,-3.4172,-3.4177,-3.4114,-3.417,-3.418,-3.4203,-3.4252,-3.4259,-3.4224,-3.4224,-3.4298,-3.4306,-3.4313,-3.4367,-3.434,-3.4344,-3.4346,-3.4474,-3.4476,-3.4477,0,0,0,0,0,0,-3.4056,-3.4067,-3.4169,-3.4125,-3.4138,-3.4174,-3.4199,-3.4205,-3.4222,-3.426,-3.4267,-3.4236,-3.4298,-3.4308,-3.4353,-3.437,-3.4346,-3.4349,-3.4473,-3.4475,-3.4476,-3.4473,0,0,0,0,0,0,-3.4052,-3.4066,-3.4083,-3.4125,-3.4141,-3.4207,-3.42,-3.4207,-3.4229,-3.423,-3.4273,-3.4279,-3.4298,-3.4347,-3.4357,-3.4375,-3.4353,-3.4472,-3.4474,-3.4476,-3.4472,-3.4475,-3.4477,0,0,0,0,0,-3.4047,-3.4079,-3.4083,-3.4095,-3.4162,-3.4208,-3.4216,-3.4237,-3.4231,-3.4247,-3.4272,-3.4278,-3.4366,-3.4351,-3.4363,-3.4382,-3.4471,-3.4473,-3.4476,-3.4471,-3.4474,-3.4477,0,0,0,0,0,0,-3.4038,-3.4085,-3.409,-3.4137,-3.4168,-3.421,-3.4232,-3.424,-3.4274,-3.4272,-3.4297,-3.4307,-3.435,-3.4371,-3.4353,-3.4426,-3.4418,-3.4423,-3.4411,-3.4414,-3.4416,-3.441,-3.4356,0,0,0,0,0,-3.4041,-3.4074,-3.4114,-3.4151,-3.4167,-3.4197,-3.4217,-3.4231,-3.4264,-3.4277,-3.4305,-3.4337,-3.4372,-3.4395,-3.4429,-3.4476,-3.4485,-3.4495,-3.4497,-3.4499,-3.4502,-3.4528,-3.4533,-3.4485,-3.4485,-3.4485,0,0,-3.4048,-3.4078,-3.4098,-3.415,-3.4176,-3.4209,-3.4208,-3.4243,-3.4268,-3.4283,-3.4326,-3.4348,-3.4386,-3.4432,-3.4453,-3.445,-3.4518,-3.4502,-3.4503,-3.4506,-3.4531,-3.4535,-3.4539,-3.4486,-3.4486,-3.4486,0,0,-3.4079,-3.4105,-3.4139,-3.4164,-3.4203,-3.4223,-3.4231,-3.4272,-3.4287,-3.4331,-3.4343,-3.4373,-3.4433,-3.4459,-3.448,-3.4521,-3.4527,-3.4532,-3.4543,-3.4568,-3.4572,-3.4575,-3.4589,-3.4593,-3.4535,-3.4535,-3.4535,0,-3.4083,-3.4133,-3.4155,-3.419,-3.4213,-3.4227,-3.4261,-3.4286,-3.4334,-3.4349,-3.4345,-3.442,-3.4447,-3.4499,-3.4509,-3.4526,-3.4535,-3.4526,-3.457,-3.4573,-3.4577,-3.459,-3.4595,-3.4535,-3.4535,-3.4535,-3.4535,0,-3.4136,-3.4171,-3.4194,-3.4239,-3.4265,-3.4299,-3.4326,-3.435,-3.4361,-3.4381,-3.4426,-3.4459,-3.45,-3.4513,-3.4525,-3.4567,-3.4564,-3.4565,-3.4557,-3.4581,-3.4594,-3.4599,-3.4536,-3.4536,-3.4535,-3.4535,0,0,-3.4162,-3.4219,-3.4227,-3.4247,-3.4291,-3.4319,-3.4354,-3.4394,-3.4413,-3.4446,-3.4476,-3.4527,-3.4527,-3.4551,-3.4566,-3.4588,-3.4617,-3.4586,-3.4587,-3.459,-3.4664,-3.4662,-3.4668,-3.4622,-3.4623,-3.4624,-3.4661,0,-3.4196,-3.4259,-3.428,-3.4332,-3.4364,-3.4379,-3.4409,-3.444,-3.446,-3.449,-3.4513,-3.4548,-3.4547,-3.4562,-3.4584,-3.4609,-3.4632,-3.4606,-3.465,-3.4651,-3.4638,-3.4675,-3.4673,-3.4706,-3.4666,-3.4667,-3.4668,0,-3.4245,-3.4277,-3.4333,-3.4372,-3.4386,-3.4413,-3.4451,-3.4481,-3.4516,-3.4529,-3.4556,-3.4569,-3.4606,-3.4597,-3.4649,-3.4631,-3.465,-3.4665,-3.4667,-3.4671,-3.4659,-3.4678,-3.4717,-3.4722,-3.4676,-3.4675,-3.4674,0,-3.4256,-3.4315,-3.4355,-3.4372,-3.442,-3.4438,-3.4459,-3.4493,-3.4515,-3.4549,-3.4564,-3.4601,-3.4622,-3.4651,-3.4674,-3.4665,-3.4723,-3.4716,-3.4735,-3.4734,-3.4745,-3.4744,-3.4786,-3.476,-3.476,-3.476,-3.4759,0,-3.4292,-3.4325,-3.4361,-3.4385,-3.4423,-3.4446,-3.4483,-3.4505,-3.4535,-3.4564,-3.458,-3.4607,-3.4636,-3.4667,-3.4686,-3.4725,-3.4735,-3.4746,-3.4751,-3.4744,-3.4742,-3.4756,-3.4754,-3.4761,-3.4761,-3.476,-3.476,0,-3.4311,-3.4336,-3.4381,-3.4422,-3.4433,-3.4458,-3.4494,-3.4518,-3.4539,-3.4576,-3.4586,-3.4619,-3.4657,-3.4683,-3.4731,-3.4744,-3.4786,-3.4791,-3.4774,-3.4776,-3.4792,-3.479,-3.4844,-3.4852,-3.4821,-3.4821,-3.4821,0,-3.4331,-3.4356,-3.44,-3.442,-3.4441,-3.4474,-3.4497,-3.4521,-3.4545,-3.4586,-3.4606,-3.4644,-3.4676,-3.4735,-3.4764,-3.4801,-3.4806,-3.4822,-3.4811,-3.4804,-3.4805,-3.4802,-3.4805,-3.4823,-3.4823,-3.4824,-3.4824,0,-3.4364,-3.4375,-3.4407,-3.4444,-3.4471,-3.4501,-3.4531,-3.4547,-3.4577,-3.4603,-3.4641,-3.4665,-3.4715,-3.4752,-3.4792,-3.4814,-3.4824,-3.4827,-3.4833,-3.4826,-3.4815,-3.482,-3.4777,-3.4826,-3.4825,-3.4825,-3.4825,-3.4825,-3.4384,-3.4407,-3.4441,-3.4476,-3.4501,-3.4529,-3.4554,-3.4578,-3.461,-3.4651,-3.4664,-3.4704,-3.4738,-3.4792,-3.4815,-3.4846,-3.4845,-3.4854,-3.4856,-3.4858,-3.4857,-3.4811,-3.4854,-3.4854,-3.4854,-3.4854,-3.4854,0,-3.4417,-3.4439,-3.4471,-3.4513,-3.454,-3.4547,-3.4581,-3.4604,-3.4638,-3.4669,-3.47,-3.4744,-3.4781,-3.4812,-3.485,-3.4869,-3.4875,-3.4878,-3.4876,-3.4881,-3.4856,-3.4846,-3.4873,-3.4873,-3.4873,-3.4873,-3.4873,-3.4873,-3.4437,-3.4476,-3.4491,-3.4543,-3.4566,-3.4604,-3.4622,-3.4648,-3.4673,-3.4721,-3.4751,-3.4771,-3.4802,-3.4843,-3.4877,-3.4885,-3.4898,-3.49,-3.491,-3.4885,-3.4883,-3.4881,-3.4872,-3.4903,-3.4903,-3.4932,-3.4932,-3.4933]},{"header":{"parameterUnit":"m.s-1","parameterCategory":1,"la1":30.2991,"la2":30.254,"lo1":-89.0895,"lo2":-89.0444,"dy":0.0017,"dx":0.0017,"nx":28,"ny":28,"refTime":"2025-01-29T09:00:00:Z","depth":0,"parameterNumber":3,"parameterNumberName":"V-component_of_WINDS"},"data":[0,0,0,0,0,0,0,0,0,0,0,0,0,0,0,0,0,0,0,0,0,0,0,0,0,0,0,0,0,0,0,0,0,0,0,0,0,0,0,0,0,0,0,0,0,0,0,0,0,0,0,0,0,0,0,0,0,0,4.8938,4.8939,0,4.9001,4.9002,4.9002,4.8991,4.8989,4.8988,4.8987,4.905,4.9053,4.9055,0,0,0,0,0,0,0,0,0,0,0,0,0,4.881,4.8812,4.8938,4.8939,4.894,4.9001,4.9002,4.9003,4.8991,4.8989,4.8988,4.8987,4.9049,4.9052,4.9055,0,0,0,0,0,0,0,0,0,0,0,0,0,4.8868,4.8813,4.8938,4.8941,4.8942,4.9001,4.9002,4.9003,4.8991,4.8989,4.8988,4.8986,4.9048,4.9052,4.9056,4.9115,0,0,4.9068,4.907,0,0,0,0,0,0,0,0,4.8865,4.8873,4.894,4.8941,4.8942,4.8986,4.8979,4.904,4.8991,4.8972,4.8987,4.8985,4.903,4.9035,4.9051,4.9118,4.912,4.9069,4.9071,4.9073,4.9074,0,0,0,0,0,0,0,4.8861,4.887,4.8963,4.8941,4.8943,4.894,4.8947,4.8991,4.901,4.8974,4.8973,4.8981,4.903,4.9047,4.9052,4.9121,4.9069,4.9072,4.9075,4.9076,4.9244,4.9245,0,0,0,0,0,0,4.8856,4.8867,4.8961,4.8965,4.8899,4.8944,4.8951,4.8974,4.9009,4.9013,4.8982,4.898,4.9041,4.9047,4.9054,4.9129,4.9073,4.9077,4.9079,4.9242,4.9244,4.9246,0,0,0,0,0,0,4.8853,4.8864,4.8959,4.8916,4.8928,4.8948,4.8974,4.8976,4.8993,4.9016,4.9019,4.8996,4.904,4.9049,4.9101,4.9131,4.9079,4.9082,4.9239,4.9242,4.9245,4.9276,0,0,0,0,0,0,4.8849,4.8863,4.8886,4.8916,4.893,4.9004,4.8975,4.8978,4.9,4.8998,4.9029,4.9033,4.9039,4.9095,4.9105,4.9135,4.9085,4.9237,4.9241,4.9244,4.9273,4.928,4.9286,0,0,0,0,0,4.8845,4.8891,4.8887,4.8898,4.8958,4.9006,4.9013,4.902,4.9002,4.9025,4.9041,4.9032,4.9125,4.91,4.9111,4.9144,4.9235,4.9239,4.9244,4.927,4.9278,4.9286,0,0,0,0,0,0,4.8861,4.8895,4.8891,4.8948,4.8974,4.9003,4.9033,4.9029,4.906,4.9057,4.9063,4.907,4.9124,4.9139,4.911,4.9204,4.9178,4.9185,4.9193,4.9202,4.9209,4.9205,4.9089,0,0,0,0,0,4.8872,4.8908,4.8934,4.8982,4.8996,4.9012,4.9033,4.9036,4.9063,4.9074,4.9093,4.912,4.9156,4.9179,4.9213,4.9274,4.9282,4.9302,4.9308,4.9314,4.9321,4.9358,4.9368,4.9261,4.9261,4.9261,0,0,4.8894,4.8916,4.8938,4.8986,4.9007,4.9045,4.9021,4.9061,4.909,4.908,4.9132,4.9147,4.9177,4.9235,4.9262,4.9249,4.9352,4.932,4.9324,4.9328,4.9363,4.9374,4.9383,4.9264,4.9263,4.9263,0,0,4.8954,4.8973,4.9017,4.9039,4.9071,4.9082,4.9093,4.9123,4.9134,4.9186,4.918,4.9214,4.9274,4.9298,4.9317,4.9389,4.9383,4.9399,4.9435,4.9472,4.948,4.9488,4.9517,4.9526,4.9405,4.9405,4.9406,0,4.8977,4.9034,4.904,4.9082,4.9105,4.9098,4.9144,4.9165,4.9206,4.9222,4.9207,4.9286,4.9305,4.9371,4.9389,4.9403,4.9418,4.9397,4.9478,4.9486,4.9493,4.9521,4.9531,4.9408,4.9407,4.9407,4.9407,0,4.9062,4.9102,4.9133,4.9176,4.9202,4.9245,4.9259,4.9284,4.9286,4.9298,4.9353,4.9377,4.9417,4.9432,4.9433,4.9499,4.949,4.9476,4.945,4.9505,4.9532,4.9542,4.941,4.941,4.9409,4.9409,0,0,4.9134,4.9181,4.9193,4.9214,4.925,4.9282,4.9325,4.9366,4.939,4.9418,4.9457,4.951,4.9499,4.9521,4.9524,4.9555,4.9616,4.9539,4.9539,4.9555,4.9693,4.9706,4.9718,4.9611,4.9613,4.9614,4.9692,0,4.9201,4.9279,4.9287,4.9358,4.9397,4.9392,4.9431,4.9458,4.9472,4.9507,4.9521,4.956,4.954,4.9554,4.9585,4.9602,4.9644,4.9596,4.9649,4.9651,4.9645,4.9731,4.9744,4.9816,4.9702,4.9704,4.9705,0,4.9288,4.9322,4.9397,4.9432,4.9448,4.9483,4.9523,4.9556,4.9587,4.9595,4.9621,4.9621,4.9668,4.9638,4.9705,4.9672,4.9694,4.9706,4.9709,4.9716,4.9683,4.9744,4.9839,4.9851,4.9721,4.9719,4.9718,0,4.9338,4.9402,4.9457,4.9474,4.9514,4.954,4.9557,4.9587,4.9612,4.9646,4.9663,4.9702,4.9724,4.9754,4.9765,4.9742,4.9832,4.9802,4.9842,4.9842,4.9863,4.9862,4.9966,4.9872,4.9872,4.9871,4.9871,0,4.9413,4.946,4.948,4.9514,4.9568,4.9576,4.9629,4.9646,4.9673,4.971,4.9707,4.9743,4.9754,4.9791,4.98,4.9856,4.9864,4.9873,4.9876,4.9876,4.9875,4.9892,4.9889,4.9874,4.9874,4.9873,4.9873,0,4.9479,4.9494,4.9554,4.9588,4.9597,4.9636,4.9665,4.9698,4.9711,4.976,4.9771,4.9792,4.9837,4.985,4.9903,4.9909,4.9976,4.9971,4.9966,4.9967,5.0007,5.0005,5.0128,5.0146,5.0037,5.0038,5.0039,0,4.9527,4.9564,4.9603,4.9628,4.9648,4.9688,4.9715,4.9725,4.9753,4.9793,4.9822,4.9866,4.9903,4.9974,4.9995,5.0036,5.0035,5.0075,5.0041,5.0041,5.004,5.0039,5.0045,5.0083,5.0084,5.0085,5.0086,0,4.9613,4.9619,4.9657,4.97,4.9731,4.9764,4.9796,4.9817,4.9832,4.9864,4.991,4.9939,4.9994,5.0039,5.0082,5.01,5.0097,5.0096,5.0108,5.011,5.0107,5.0113,4.9987,5.0094,5.0093,5.0092,5.0092,5.0092,4.9674,4.9708,4.9742,4.9785,4.9811,4.9841,4.9876,4.9894,4.9933,4.998,4.9983,5.0035,5.0067,5.0124,5.0145,5.0186,5.0175,5.0191,5.0196,5.0201,5.0206,5.0098,5.0193,5.0193,5.0193,5.0193,5.0193,0,4.9763,4.9785,4.9825,4.9871,4.9906,4.9899,4.9935,4.9965,5.001,5.0041,5.0078,5.0133,5.0177,5.0201,5.0246,5.0274,5.0274,5.0286,5.0286,5.0291,5.0212,5.0199,5.0286,5.0286,5.0286,5.0286,5.0286,5.0286,4.9814,4.9872,4.9883,4.9955,4.9976,5.0027,5.0049,5.0078,5.0103,5.0165,5.0202,5.0218,5.0247,5.0294,5.0335,5.0341,5.0359,5.0374,5.0379,5.0305,5.0296,5.0287,5.0275,5.0376,5.0377,5.0455,5.0456,5.0456]}]]